685  
ASUS41 KOKX 070914  
RWROKX  
 
REGIONAL WEATHER ROUNDUP  
NATIONAL WEATHER SERVICE NEW YORK NY  
500 AM EDT THU JUL 07 2022  
 
NOTE: "FAIR" INDICATES FEW OR NO CLOUDS BELOW 12,000 FEET WITH NO  
SIGNIFICANT WEATHER AND/OR S TO VISIBILITY
.  
 
NYZ071-072-176-178-NJZ106-104-071000-  
NEW YORK CITY METRO AREA  
 
CITY SKY/WX TMP DP RH WIND PRES REMARKS
 
CENTRAL PARK CLOUDY 73 62 68 VRB3 30.00R  
WORLD TRD CTR NOT AVBL  
BRONX LEHMAN C N/A 72 63 73 E7 N/A  
LAGUARDIA ARPT MOCLDY 71 63 75 NE10 29.97R  
QUEENS COLLEGE N/A N/A N/A N/A E7 N/A  
KENNEDY INTL MOCLDY 73 62 68 E12 29.97R  
BREEZY POINT N/A 70 N/A N/A E8 N/A  
BROOKLYN COLL N/A 73 63 68 E9 N/A  
STATEN ISLAND N/A 73 64 73 E9 N/A  
NEWARK/LIBERTY MOCLDY 77 63 61 VRB7 29.96R  
TETERBORO CLOUDY 73 61 65 NE6 29.96R  

 
 
NYZ177-179-078>081-071000-  
LONG ISLAND NEW YORK  
 
CITY SKY/WX TMP DP RH WIND PRES REMARKS
 
JONES BEACH N/A 70 N/A N/A E7 N/A  
WANTAGH N/A 72 63 73 E8 N/A  
HEMPSTEAD NOT AVBL  
MATINECOCK PT NOT AVBL  
FARMINGDALE CLOUDY 72 61 68 E6 29.97R  
MACARTHUR/ISP PTCLDY 69 63 81 E6 29.97R  
STONY BROOK N/A 68 61 77 CALM N/A  
SHIRLEY PTCLDY 69 60 73 CALM 29.98R  
MT SINAI HARB N/A 70 N/A N/A E3 N/A  
WESTHAMPTON PTCLDY 68 63 84 E5 30.00R  
EAST HAMPTON PTSUNNY 66 66 100 NE3 29.99R  
SOUTHOLD N/A 68 63 83 E3 N/A  
MONTAUK N/A 67 62 84 VRB3 30.00R  

 
 
NYZ052-065-067-071000-  
HUDSON VALLEY  
 
CITY SKY/WX TMP DP RH WIND PRES REMARKS
 
WHITE PLAINS MOCLDY 70 61 73 E5 29.99R  
LARCHMONT HARB N/A 68 N/A N/A NE15 N/A  
CROTON ON HUDS N/A 70 N/A N/A MISG N/A  
SOMERS N/A 63 55 77 CALM N/A  
BREWSTER N/A 64 57 77 NE3 N/A  
NEWBURGH MOCLDY 66 59 77 NE6 30.00R  
MONTGOMERY PTCLDY 62 58 86 N8 29.99S  
OTISVILLE N/A N/A N/A N/A N2 N/A  
WARWICK N/A 64 63 94 NW1 N/A  
SUFFERN N/A 68 59 73 CALM N/A  
POUGHKEEPSIE MOCLDY 64 60 87 CALM 29.99R  
ALBANY PTCLDY 60 56 86 W3 30.01S  

 
 
NJZ001-105-106-008-010-013-015-019>022-104-071000-  
NEW JERSEY  
 
CITY SKY/WX TMP DP RH WIND PRES REMARKS
 
NEWARK/LIBERTY MOCLDY 77 63 61 VRB7 29.96R  
TETERBORO CLOUDY 73 61 65 NE6 29.96R  
CALDWELL CLOUDY 73 58 59 NE5 29.98R  
SOMERVILLE CLOUDY 74 61 63 NE3 29.94S  
LINDEN CLOUDY 75 63 66 SE7 29.96S  
PERTH AMBOY N/A 72 N/A N/A E3 N/A  
SUSSEX CLOUDY 69 61 75 NE5 30.00R  
ANDOVER N/A 70 62 76 NE6 29.99R  
TRENTON CLOUDY 73 63 70 NE8 29.94R  
MILLVILLE LGT RAIN 72 68 87 NE6 29.93R  
ATLANTIC CITY RAIN 73 70 90 W6 29.94R  
WRIGHTSTOWN LGT RAIN 70 67 90 S5 29.94R  
TOMS RIVER NOT AVBL  
BELMAR CLOUDY 72 72 100 E10 29.96R  

 
 
PAZ047>061-062-071-071000-  
EASTERN PENNSYLVANIA  
 
CITY SKY/WX TMP DP RH WIND PRES REMARKS
 
PHILADELPHIA RAIN 71 69 93 E3 29.95R FOG  
ALLENTOWN CLOUDY 71 62 73 NE7 29.96R  
SCRANTON CLOUDY 65 60 84 E3 30.00S  

 
 
CTZ002-004>006-009-010-012-RIZ004-006-007-MAZ004-011-015-071000-  
SOUTHERN NEW ENGLAND  
 
IN CT  
 
CITY SKY/WX TMP DP RH WIND PRES REMARKS
 
BRADLEY INTL PTCLDY 61 56 83 N5 30.02R  
HARTFORD PTCLDY 65 57 75 N7 30.01R  
DANBURY PTCLDY 67 58 72 E6 30.02R  
WTRBURY/OXFORD PTCLDY 64 56 75 NE8 30.02S  
NORWALK HARBOR N/A 68 N/A N/A NE10 N/A  
BRIDGEPORT PTCLDY 70 62 76 NE8 29.99R  
MERIDEN PTCLDY 65 56 72 CALM 30.01R  
NEW HAVEN MOCLDY 70 61 73 NE5 30.00R  
CHESTER N/A 61 61 100 CALM 30.01S  
GROTON CLEAR 65 61 87 CALM 29.99S  
WILLIMANTIC PTCLDY 58 57 97 CALM 30.03R  
 
IN RI  
 
CITY SKY/WX TMP DP RH WIND PRES REMARKS
 
PROVIDENCE PTCLDY 62 58 86 W5 30.02R  
BLOCK ISLAND CLEAR 63 61 93 N3 30.01R  
WESTERLY PTCLDY 62 60 93 CALM 30.00R  
 
IN MA  
 
CITY SKY/WX TMP DP RH WIND PRES REMARKS
 
BOSTON MOCLDY 67 57 70 N3 30.01R  
WORCESTER CLEAR 63 52 67 N7 30.03S  
WESTFIELD PTCLDY 57 54 89 CALM 30.02S  
PROVINCETOWN CLEAR 57 57 100 S3 30.01R  
NANTUCKET CLEAR 61 59 93 S3 30.01R  

 
 
ANZ330-335-338-340-345-350-353-355-071000-  
COASTAL MARINE OBSERVATIONS  
 
 
STATION/POSITION TIME SKY/WX TEMP WIND PRES VSBY WAVE
 
AIR SEA DIR/SP/G HT/PER  
(UTC) (F) (DEG/KT/KT) (MB) (MI) (FT/S)  
NY HARB ENTRANCE 0850 70 110/ 16/ 17 1013.3 3/ 6  
20 S FIRE ISLAND 0850 72 1013.4 3/ 6  
GREAT SOUTH BAY 0830 72 90/ 12/ 14 N/A  
23 SSW MONTAUK P 0850 68 100/ 6/ 8 1015.4 3/ 6  
15 E BARNEGAT LI 0826 72 N/A 3/ 6  
HUDSON CANYON 0850 73 72 100/ 16/ 19 1013.4 4/ 6  
KINGS POINT 0824 70 66 60/ 4/ 5 1015.5  
EXECUTION ROCKS 0845 69 50/ 10/ 12 N/A  
WESTERN LI SOUND 0845 80 60/ 12/ 16 N/A  
CENTRAL LI SOUND NOT AVBL  
ROBBINS REEF 0824 74 110/ 13/ 15 1014.3  

 
 
>>>>>>>>>>>>>>>>>>>>>>>>>>>> KEY <<<<<<<<<<<<<<<<<<<<<<<<<<<  
> <  
> SKY/WX - SKY CONDITION/PRESENT WEATHER <  
> TMP - TEMPERATURE IN FAHRENHEIT <  
> DP - DEW POINT IN FAHRENHEIT <  
> RH - RELATIVE HUMIDITY IN PERCENT <  
> WIND - DIRECTION (FROM) AND SPEED IN MPH <  
> PRES - MEAN SEA LEVEL PRESSURE (INCHES OF HG) <  
> WCI - WIND CHILL INDEX <  
> VSB - VISIBILITY IN MILES <  
> HX - HEAT INDEX <  
> TC - TEMPERATURE IN CELSIUS <  
> VRB - VARIABLE WIND DIRECTION <  
> <  
>>>>>>>>>>>>>>>>>>>>>>>>>>>> KEY <<<<<<<<<<<<<<<<<<<<<<<<<<<  
 
 
CLICK HERE TO GO TO PREVIOUS BULLETINS.

The Nexlab NY Page
The Nexlab NJ Page
The Nexlab CT Page Main Text Page